Big Bear Station Historical Data
Daily Summary for November 27, 2017 Units:  English    Metric   Both
« Previous Day
Next Day »
Daily Weekly Monthly Yearly Custom
  High: Low: Average:
Temperature: 50.5 °F 34.9 °F 41.9 °F
Dew Point: 41.7 °F 15.2 °F 25.9 °F
Humidity: 92 % 32 % 54 %
Wind Speed: 11.9 mph 0.0 mph 2.3 mph
Wind Gust: -999.0 mph - -
Wind:- - SW
Pressure: 30.20 in 30.02 in -
Precipitation: 0.01 in    
Historical Graphs
 
 
Tabular Data for November 27, 2017
Time Temperature Dew Point Pressure Wind Wind Speed Wind Gust Humidity Rainfall Rate (Hourly)
00:13 46.0 °F 27.9 °F 30.20 in Calm   -999.0 mph 49 % 0 in
00:28 45.3 °F 27.7 °F 30.20 in WNW 2.7 mph -999.0 mph 50 % 0 in
00:43 45.1 °F 27.1 °F 30.19 in WNW 1.1 mph -999.0 mph 49 % 0 in
00:59 44.8 °F 27.3 °F 30.18 in NW 1.1 mph -999.0 mph 50 % 0 in
01:14 44.8 °F 27.3 °F 30.17 in WNW 2.2 mph -999.0 mph 50 % 0 in
01:29 45.0 °F 27.5 °F 30.16 in Calm   -999.0 mph 50 % 0 in
01:44 45.0 °F 27.5 °F 30.16 in NNW 2.7 mph -999.0 mph 50 % 0 in
02:00 45.3 °F 28.2 °F 30.16 in NW 4.2 mph -999.0 mph 51 % 0 in
02:16 45.7 °F 28.6 °F 30.16 in NNE 3.2 mph -999.0 mph 51 % 0 in
02:31 45.5 °F 29.4 °F 30.16 in SSE 1.7 mph -999.0 mph 53 % 0 in
02:46 45.1 °F 27.6 °F 30.15 in South 1.1 mph -999.0 mph 50 % 0 in
03:01 44.6 °F 25.6 °F 30.14 in West 1.7 mph -999.0 mph 47 % 0 in
03:16 44.2 °F 26.7 °F 30.13 in Calm   -999.0 mph 50 % 0 in
03:32 44.1 °F 25.1 °F 30.12 in Calm   -999.0 mph 47 % 0 in
03:47 45.1 °F 24.5 °F 30.11 in SSW 1.7 mph -999.0 mph 44 % 0 in
04:02 45.9 °F 23.5 °F 30.11 in NW 4.2 mph -999.0 mph 41 % 0 in
04:17 46.2 °F 23.8 °F 30.11 in NNW 3.7 mph -999.0 mph 41 % 0 in
04:32 45.9 °F 24.6 °F 30.08 in NW 1.7 mph -999.0 mph 43 % 0 in
04:48 46.0 °F 25.3 °F 30.09 in WNW 8.9 mph -999.0 mph 44 % 0 in
05:03 45.5 °F 26.9 °F 30.08 in Calm   -999.0 mph 48 % 0 in
05:18 45.3 °F 24.7 °F 30.08 in North 2.7 mph -999.0 mph 44 % 0 in
05:33 46.0 °F 24.7 °F 30.07 in South 2.2 mph -999.0 mph 43 % 0 in
05:49 45.9 °F 25.7 °F 30.07 in WSW 3.7 mph -999.0 mph 45 % 0 in
06:04 45.7 °F 25.6 °F 30.07 in South 7.3 mph -999.0 mph 45 % 0 in
06:19 44.6 °F 27.6 °F 30.08 in NE 1.7 mph -999.0 mph 51 % 0 in
06:35 43.5 °F 28.8 °F 30.08 in East 1.1 mph -999.0 mph 56 % 0 in
06:50 43.2 °F 33.0 °F 30.08 in SSE 6.3 mph -999.0 mph 67 % 0 in
07:05 42.1 °F 37.0 °F 30.08 in South 2.2 mph -999.0 mph 82 % 0 in
07:20 42.1 °F 38.5 °F 30.09 in Calm   -999.0 mph 87 % 0 in
07:36 41.7 °F 38.7 °F 30.11 in Calm   -999.0 mph 89 % 0 in
07:51 42.3 °F 39.9 °F 30.11 in Calm   -999.0 mph 91 % 0 in
08:06 43.3 °F 41.1 °F 30.11 in Calm   -999.0 mph 92 % 0 in
08:21 43.9 °F 41.7 °F 30.11 in NNW 6.3 mph -999.0 mph 92 % 0 in
08:37 43.9 °F 40.9 °F 30.11 in SSE 4.7 mph -999.0 mph 89 % 0 in
08:52 43.5 °F 39.9 °F 30.11 in South 2.7 mph -999.0 mph 87 % 0 in
09:07 43.2 °F 39.0 °F 30.11 in South 3.2 mph -999.0 mph 85 % 0 in
09:22 43.0 °F 36.6 °F 30.11 in SSE 1.1 mph -999.0 mph 78 % 0 in
09:38 43.7 °F 36.3 °F 30.11 in SSW 2.7 mph -999.0 mph 75 % 0 in
09:53 44.4 °F 32.6 °F 30.10 in South 5.8 mph -999.0 mph 63 % 0 in
10:08 46.0 °F 32.5 °F 30.09 in SW 5.8 mph -999.0 mph 59 % 0 in
10:23 45.9 °F 29.7 °F 30.09 in SSW 2.7 mph -999.0 mph 53 % 0 in
10:39 46.4 °F 28.8 °F 30.08 in NNW 6.8 mph -999.0 mph 50 % 0 in
10:54 46.9 °F 27.7 °F 30.08 in West 2.2 mph -999.0 mph 47 % 0 in
11:09 47.8 °F 25.8 °F 30.07 in WNW 3.2 mph -999.0 mph 42 % 0 in
11:25 47.8 °F 22.8 °F 30.07 in SSW 5.8 mph -999.0 mph 37 % 0 in
11:40 48.0 °F 25.4 °F 30.07 in East 1.7 mph -999.0 mph 41 % 0 in
11:55 50.0 °F 26.0 °F 30.05 in NNW 2.2 mph -999.0 mph 39 % 0 in
12:11 50.5 °F 21.7 °F 30.04 in ENE 1.1 mph -999.0 mph 32 % 0 in
12:26 49.8 °F 21.1 °F 30.03 in NNW 2.7 mph -999.0 mph 32 % 0 in
12:41 48.0 °F 26.0 °F 30.02 in NNE 11.9 mph -999.0 mph 42 % 0 in
12:56 44.2 °F 31.2 °F 30.03 in WNW 6.8 mph -999.0 mph 60 % 0 in
13:12 43.3 °F 31.9 °F 30.03 in WNW 3.7 mph -999.0 mph 64 % 0 in
13:27 42.3 °F 31.4 °F 30.03 in West 2.7 mph -999.0 mph 65 % 0 in
13:42 41.4 °F 33.4 °F 30.03 in NW 7.3 mph -999.0 mph 73 % 0 in
13:58 40.6 °F 33.3 °F 30.04 in NNW 1.1 mph -999.0 mph 75 % 0 in
14:13 40.6 °F 33.6 °F 30.04 in NNE 2.7 mph -999.0 mph 76 % 0 in
14:28 41.2 °F 33.5 °F 30.04 in WNW 5.3 mph -999.0 mph 74 % 0 in
14:44 42.3 °F 31.4 °F 30.03 in NNE 3.2 mph -999.0 mph 65 % 0 in
15:00 42.6 °F 30.9 °F 30.04 in WNW 1.7 mph -999.0 mph 63 % 0 in
15:15 42.8 °F 26.4 °F 30.04 in NW 3.2 mph -999.0 mph 52 % 0 in
15:30 43.2 °F 22.2 °F 30.05 in NNW 5.3 mph -999.0 mph 43 % 0 in
15:45 42.4 °F 18.6 °F 30.05 in South 1.7 mph -999.0 mph 38 % 0 in
16:01 41.5 °F 20.7 °F 30.05 in Calm   -999.0 mph 43 % 0 in
16:16 40.8 °F 18.9 °F 30.06 in Calm   -999.0 mph 41 % 0 in
16:31 39.4 °F 20.3 °F 30.06 in SSE 2.2 mph -999.0 mph 46 % 0 in
16:46 38.5 °F 20.5 °F 30.06 in Calm   -999.0 mph 48 % 0 in
17:01 37.2 °F 20.3 °F 30.07 in Calm   -999.0 mph 50 % 0 in
17:17 36.7 °F 15.2 °F 30.08 in Calm   -999.0 mph 41 % 0 in
17:32 36.3 °F 17.0 °F 30.08 in Calm   -999.0 mph 45 % 0 in
17:47 35.2 °F 16.5 °F 30.08 in Calm   -999.0 mph 46 % 0 in
18:02 34.9 °F 18.1 °F 30.08 in Calm   -999.0 mph 50 % 0 in
18:18 34.9 °F 18.1 °F 30.09 in SSW 1.1 mph -999.0 mph 50 % 0 in
18:33 35.6 °F 19.7 °F 30.09 in Calm   -999.0 mph 52 % 0 in
18:48 35.2 °F 18.9 °F 30.09 in Calm   -999.0 mph 51 % 0 in
19:03 35.1 °F 20.5 °F 30.09 in Calm   -999.0 mph 55 % 0 in
19:19 34.9 °F 20.8 °F 30.10 in Calm   -999.0 mph 56 % 0 in
19:34 35.1 °F 21.8 °F 30.11 in WNW 2.7 mph -999.0 mph 58 % 0 in
19:49 35.2 °F 21.1 °F 30.11 in Calm   -999.0 mph 56 % 0 in
20:04 35.4 °F 19.5 °F 30.11 in West 2.7 mph -999.0 mph 52 % 0 in
20:19 37.0 °F 17.6 °F 30.11 in Calm   -999.0 mph 45 % 0 in
20:35 38.3 °F 17.2 °F 30.11 in SE 2.2 mph -999.0 mph 42 % 0 in
20:50 38.1 °F 17.6 °F 30.11 in SE 2.2 mph -999.0 mph 43 % 0 in
21:06 38.1 °F 18.1 °F 30.12 in NE 2.2 mph -999.0 mph 44 % 0 in
21:21 37.8 °F 18.3 °F 30.13 in SW 1.7 mph -999.0 mph 45 % 0 in
21:36 37.2 °F 18.8 °F 30.13 in South 2.7 mph -999.0 mph 47 % 0 in
21:51 36.3 °F 18.0 °F 30.14 in Calm   -999.0 mph 47 % 0 in
22:06 35.6 °F 18.3 °F 30.14 in Calm   -999.0 mph 49 % 0 in
22:22 35.2 °F 18.4 °F 30.14 in Calm   -999.0 mph 50 % 0 in
22:37 35.8 °F 19.4 °F 30.14 in Calm   -999.0 mph 51 % 0 in
22:52 36.1 °F 19.7 °F 30.14 in North 1.1 mph -999.0 mph 51 % 0 in
23:07 36.3 °F 19.9 °F 30.14 in ESE 1.7 mph -999.0 mph 51 % 0 in
23:23 36.3 °F 19.0 °F 30.14 in Calm   -999.0 mph 49 % 0 in
23:38 36.0 °F 19.6 °F 30.14 in SSW 3.7 mph -999.0 mph 51 % 0 in
23:53 34.9 °F 18.6 °F 30.15 in SE 1.7 mph -999.0 mph 51 % 0 in
Big Bear CA Weather
Compliments of Weather Underground - 1.5 mb